Location: Tr�vern
(48.0333°N, 4.6000°W)
Time: 08:41:13
(UTC+00:00)

Helios 1B rocket - Pass Details

Date: 14 July 2020
Orbit: 574 x 584 km, 98.1° (Epoch: 04 August)

Event Time Altitude Azimuth Distance (km) Brightness Sun altitude
Rises 02:01:32 0° 2° (N) 2,810 7.2 -17.0°
Reaches altitude 10° 02:04:02 10° 348° (NNW) 1,904 5.9 -16.8°
Maximum altitude 02:07:15 22° 296° (WNW) 1,272 4.2 -16.6°
Enters shadow 02:09:09 16° 260° (W) 1,520 4.2 -16.5°
